SHIYAN 13 (SY-13)

Satellite information

Favourite Embed

Satellite Type and Status

PAYLOADIN ORBIT

Key statistics

Satellite SHIYAN 13 (SY-13) at a glance.

Uptime

1268

Days in orbit

Revolutions

≈ 14.2

Per day

Orbit

SSO

Sun Synchronous Orbit

Inclination

98.5

Latest

Satellite identification and parameters

Extended collection of information and parameters for SHIYAN 13 (SY-13).

Object identification

Identified? True

Debris? False

Object name: SHIYAN 13 (SY-13)

International designator: 2022-004A

Object number (NORAD): 51102

Object ID (CCSDS): 51102

Country: PEOPLES REPUBLIC OF CHINA (PRC)

Current information (Y/N): Y

RCS size: LARGE

Orbital parameters

Period: 101.549 minutes

Inclination: 98.4867 deg

SMA: 7210.168 km

Apoapsis: 1275.495 km

Periapsis: 388.571 km

RAAN: 216.0689 deg

Eccentricy: 0.0615051

Argument of periapsis: 117.0254 deg

Mean anomaly: 249.5064 deg

Mean motion: 14.18027705 rev/day

Mean motion (dot): 0.00002631 rev/day2

B* drag term: 0.00017966 1/REarth

Two-line elements (TLE)

Creation date: July 8, 2025, 2:27 a.m.

Reference frame: TEME

Reference center: EARTH

Epoch: July 7, 2025, 9:22 p.m. UTC

TLE line 0: 0 SHIYAN 13 (SY-13)

TLE line 1: 1 51102U 22004A 25188.89058627 .00002631 00000-0 17966-3 0 9990

TLE line 2: 2 51102 98.4867 216.0689 0615051 117.0254 249.5064 14.18027705178453

Live tracking on map

Real-time ground track for satellite SHIYAN 13 (SY-13).

In-orbit conjunctions

There are no conjunctions computed for SHIYAN 13 (SY-13), at the moment. Check back to stay up to date, as we update our databases every day.

Go to all conjunctions

Associated space launch

Chinese satellite declared for technological demonstration purposes, details TBD.

SHIYAN 13 (SY-13) was lifted into orbit during the mission ‘Long March 2D | Shiyan 13’, on board a Long March 2D space rocket.

The launch took place on Jan. 17, 2022, 2:35 a.m. from Launch Complex 9.

For more information about the launch, click the button.

Launch to space Long March 2D | Shiyan 13
Long March 2D | Shiyan 13

Agency: N/A

Status: Launch Successful

Launch date: Jan. 17, 2022, 2:35 a.m. UTC

Rocket: Long March 2D

Launch pad: Launch Complex 9

Location: Taiyuan Satellite Launch Center, People's Republic of China

...

Latest news about this satellite

News about space launch
China launches Long March 2D with Shiyan-13 to start busy year

China successfully kicked off 2022 with the launch of the classified Shiyan-13 payload from the Taiyuan Satellite Launch Center (TSLC) aboard a Chang Zheng 2D (internationally called the Long March 2D).

News about space launch
First Chinese space mission of 2022 rockets into orbit

China launched a Long March 2D rocket Monday with another classified satellite, deploying the spacecraft into a polar orbit on the first of more than 40 Chinese Long March rocket missions planned in 2022.

News about space launch
China’s first launch of 2022 puts classified Shiyan-13 satellite into orbit

A Long March 2D carried the classified Shiyan-13 test satellite into orbit late Sunday, marking the start of what is planned to be a busy year of launches for China.


Newsletter sign-up

Weekly statistics, charts and insights to help you stay on top of the space industry.